| time (UTC) | temp C | wind direction | speed KPH | gust KPH | rain 1hr cm | rain 24hr cm | rain mn cm | humidity % | barometer mb |
| 20260505012252 | 7 | 33 | 0.0 | 1.6 | 0.00 | 0.00 | 0.00 | 88 | 1006.8 |
| 20260505011709 | 7 | 32 | 0.0 | 4.8 | 0.00 | 0.00 | 0.00 | 87 | 1006.6 |
| 20260505011501 | 7 | 33 | 0.0 | 4.8 | 0.00 | 0.00 | 0.00 | 87 | 1006.6 |
| 20260505011209 | 8 | 32 | 3.2 | 4.8 | 0.00 | 0.00 | 0.00 | 88 | 1006.5 |
| 20260505010709 | 8 | 60 | 0.0 | 1.6 | 0.00 | 0.00 | 0.00 | 87 | 1006.4 |
| 20260505010208 | 8 | 60 | 0.0 | 3.2 | 0.00 | 0.00 | 0.00 | 87 | 1006.3 |
| 20260505005708 | 8 | 60 | 0.0 | 4.8 | 0.00 | 0.00 | 0.00 | 85 | 1006.3 |
| 20260505005208 | 8 | 60 | 1.6 | 4.8 | 0.00 | 0.00 | 0.00 | 84 | 1006.3 |
| 20260505004707 | 8 | 96 | 1.6 | 4.8 | 0.00 | 0.00 | 0.00 | 84 | 1006.2 |
| 20260505004146 | 8 | 99 | 1.6 | 3.2 | 0.00 | 0.00 | 0.00 | 84 | 1006.1 |
| 20260505003646 | 9 | 100 | 0.0 | 3.2 | 0.00 | 0.00 | 0.00 | 85 | 1006.0 |
| 20260505003124 | 9 | 100 | 0.0 | 1.6 | 0.00 | 0.00 | 0.00 | 82 | 1005.9 |
| 20260505002624 | 9 | 100 | 0.0 | 1.6 | 0.00 | 0.00 | 0.00 | 82 | 1005.7 |
| 20260505002124 | 10 | 100 | 0.0 | 3.2 | 0.00 | 0.00 | 0.00 | 82 | 1005.7 |
| 20260505001623 | 10 | 100 | 1.6 | 3.2 | 0.00 | 0.00 | 0.00 | 81 | 1005.7 |
| 20260505001123 | 10 | 102 | 0.0 | 1.6 | 0.00 | 0.00 | 0.00 | 80 | 1005.6 |
| 20260505000623 | 10 | 102 | 0.0 | 1.6 | 0.00 | 0.00 | 0.00 | 80 | 1005.6 |
| 20260505000122 | 10 | 102 | 0.0 | 1.6 | 0.00 | 0.00 | 0.00 | 82 | 1005.5 |
| 20260504235540 | 10 | 102 | 0.0 | 0.0 | 0.00 | 0.00 | 0.00 | 80 | 1005.6 |
| 20260504235040 | 10 | 102 | 0.0 | 1.6 | 0.00 | 0.00 | 0.00 | 79 | 1005.6 |
| 20260504234539 | 11 | 102 | 0.0 | 1.6 | 0.00 | 0.00 | 0.00 | 78 | 1005.5 |
| 20260504234039 | 11 | 102 | 0.0 | 1.6 | 0.00 | 0.00 | 0.00 | 76 | 1005.4 |
| 20260504233539 | 11 | 102 | 0.0 | 0.0 | 0.00 | 0.00 | 0.00 | 77 | 1005.3 |
| 20260504233039 | 12 | 102 | 0.0 | 0.0 | 0.00 | 0.00 | 0.00 | 75 | 1005.3 |
| 20260504232538 | 12 | 103 | 0.0 | 0.0 | 0.00 | 0.00 | 0.00 | 73 | 1005.3 |
| 20260504232038 | 12 | 103 | 0.0 | 1.6 | 0.00 | 0.00 | 0.00 | 71 | 1005.2 |
| 20260504231538 | 13 | 103 | 0.0 | 3.2 | 0.00 | 0.00 | 0.00 | 68 | 1005.1 |
| 20260504231037 | 13 | 103 | 0.0 | 3.2 | 0.00 | 0.00 | 0.00 | 66 | 1005.1 |
| 20260504230537 | 14 | 102 | 0.0 | 4.8 | 0.00 | 0.00 | 0.00 | 65 | 1005.1 |
| 20260504230037 | 15 | 102 | 1.6 | 4.8 | 0.00 | 0.00 | 0.00 | 62 | 1005.0 |
| 20260504225537 | 15 | 103 | 1.6 | 4.8 | 0.00 | 0.00 | 0.00 | 60 | 1005.0 |
| 20260504225036 | 15 | 104 | 1.6 | 4.8 | 0.00 | 0.00 | 0.00 | 59 | 1005.0 |
| 20260504224536 | 14 | 112 | 0.0 | 6.4 | 0.00 | 0.00 | 0.00 | 60 | 1005.0 |
| 20260504224035 | 15 | 113 | 1.6 | 6.4 | 0.00 | 0.00 | 0.00 | 62 | 1004.9 |
| 20260504223535 | 15 | 122 | 1.6 | 6.4 | 0.00 | 0.00 | 0.00 | 58 | 1004.9 |
| 20260504223035 | 15 | 168 | 1.6 | 11.3 | 0.00 | 0.00 | 0.00 | 56 | 1004.9 |
| 20260504222535 | 15 | 119 | 1.6 | 11.3 | 0.00 | 0.00 | 0.00 | 55 | 1004.9 |
| 20260504222034 | 15 | 165 | 3.2 | 11.3 | 0.00 | 0.00 | 0.00 | 56 | 1004.8 |
| 20260504221650 | 15 | 162 | 0.0 | 16.1 | 0.00 | 0.00 | 0.00 | 56 | 1004.9 |
| 20260504221534 | 15 | 136 | 3.2 | 16.1 | 0.00 | 0.00 | 0.00 | 55 | 1004.8 |
| 20260504221034 | 15 | 119 | 4.8 | 16.1 | 0.00 | 0.00 | 0.00 | 56 | 1004.8 |
| 20260504220534 | 15 | 123 | 4.8 | 14.5 | 0.00 | 0.00 | 0.00 | 55 | 1004.8 |
| 20260504220137 | 15 | 104 | 4.8 | 19.3 | 0.00 | 0.00 | 0.00 | 55 | 1004.9 |
| 20260504220033 | 15 | 133 | 4.8 | 19.3 | 0.00 | 0.00 | 0.00 | 56 | 1004.8 |
| 20260504215533 | 15 | 143 | 8.0 | 14.5 | 0.00 | 0.00 | 0.00 | 56 | 1004.8 |
| 20260504214951 | 15 | 145 | 6.4 | 17.7 | 0.00 | 0.00 | 0.00 | 55 | 1004.8 |
| 20260504214617 | 15 | 104 | 8.0 | 17.7 | 0.00 | 0.00 | 0.00 | 55 | 1004.8 |
| 20260504214450 | 15 | 122 | 6.4 | 16.1 | 0.00 | 0.00 | 0.00 | 56 | 1004.8 |
| 20260504213950 | 15 | 162 | 4.8 | 17.7 | 0.00 | 0.00 | 0.00 | 56 | 1004.8 |
| 20260504213407 | 15 | 103 | 8.0 | 19.3 | 0.00 | 0.00 | 0.00 | 56 | 1005.0 |
| 20260504213113 | 15 | 137 | 0.0 | 14.5 | 0.00 | 0.00 | 0.00 | 60 | 1004.9 |
| 20260504212846 | 15 | 139 | 8.0 | 14.5 | 0.00 | 0.00 | 0.00 | 58 | 1004.9 |
| 20260504212324 | 15 | 158 | 4.8 | 14.5 | 0.00 | 0.00 | 0.00 | 58 | 1004.8 |
| 20260504211824 | 15 | 137 | 8.0 | 14.5 | 0.00 | 0.00 | 0.00 | 58 | 1004.7 |
| 20260504211540 | 15 | 103 | 3.2 | 12.9 | 0.00 | 0.00 | 0.00 | 58 | 1004.6 |
| 20260504211303 | 15 | 116 | 8.0 | 16.1 | 0.00 | 0.00 | 0.00 | 59 | 1004.5 |
| 20260504210802 | 15 | 104 | 8.0 | 16.1 | 0.00 | 0.00 | 0.00 | 59 | 1004.7 |
| 20260504210241 | 15 | 162 | 6.4 | 19.3 | 0.00 | 0.00 | 0.00 | 59 | 1004.6 |
| 20260504210027 | 15 | 195 | 8.0 | 24.1 | 0.00 | 0.00 | 0.00 | 59 | 1004.6 |
| 20260504205741 | 15 | 140 | 6.4 | 24.1 | 0.00 | 0.00 | 0.00 | 59 | 1004.6 |
| 20260504205240 | 15 | 140 | 6.4 | 22.5 | 0.00 | 0.00 | 0.00 | 60 | 1004.6 |
| 20260504204740 | 15 | 136 | 9.7 | 22.5 | 0.00 | 0.00 | 0.00 | 59 | 1004.7 |
| 20260504204505 | 15 | 130 | 6.4 | 22.5 | 0.00 | 0.00 | 0.00 | 60 | 1004.6 |
| 20260504204240 | 15 | 98 | 8.0 | 22.5 | 0.00 | 0.00 | 0.00 | 58 | 1004.6 |
| 20260504203740 | 14 | 100 | 8.0 | 20.9 | 0.00 | 0.00 | 0.00 | 59 | 1004.6 |
| 20260504203240 | 14 | 119 | 8.0 | 20.9 | 0.00 | 0.00 | 0.00 | 60 | 1004.6 |
| 20260504202739 | 14 | 103 | 11.3 | 22.5 | 0.00 | 0.00 | 0.00 | 59 | 1004.7 |
| 20260504202239 | 14 | 184 | 11.3 | 19.3 | 0.00 | 0.00 | 0.00 | 59 | 1004.6 |
| 20260504201718 | 14 | 147 | 8.0 | 24.1 | 0.00 | 0.00 | 0.00 | 60 | 1004.6 |
| 20260504201218 | 14 | 114 | 12.9 | 24.1 | 0.00 | 0.00 | 0.00 | 59 | 1004.7 |
| 20260504200717 | 14 | 108 | 6.4 | 29.0 | 0.00 | 0.00 | 0.00 | 60 | 1004.6 |
| 20260504200217 | 14 | 73 | 14.5 | 29.0 | 0.00 | 0.00 | 0.00 | 59 | 1004.5 |
| 20260504195717 | 14 | 154 | 11.3 | 29.0 | 0.00 | 0.00 | 0.00 | 59 | 1004.4 |
| 20260504195216 | 14 | 81 | 16.1 | 29.0 | 0.00 | 0.00 | 0.00 | 58 | 1004.4 |
| 20260504194716 | 15 | 95 | 11.3 | 25.7 | 0.00 | 0.00 | 0.00 | 59 | 1004.4 |
| 20260504194216 | 15 | 147 | 6.4 | 24.1 | 0.00 | 0.00 | 0.00 | 60 | 1004.4 |
| 20260504193655 | 14 | 108 | 8.0 | 27.4 | 0.00 | 0.00 | 0.00 | 60 | 1004.3 |
| 20260504193154 | 15 | 107 | 12.9 | 27.4 | 0.00 | 0.00 | 0.00 | 59 | 1004.4 |
| 20260504192654 | 15 | 68 | 16.1 | 27.4 | 0.00 | 0.00 | 0.00 | 58 | 1004.5 |
| 20260504192154 | 15 | 141 | 11.3 | 30.6 | 0.00 | 0.00 | 0.00 | 61 | 1004.4 |
| 20260504191653 | 14 | 71 | 14.5 | 30.6 | 0.00 | 0.00 | 0.00 | 61 | 1004.4 |
| 20260504191153 | 14 | 83 | 12.9 | 29.0 | 0.00 | 0.00 | 0.00 | 61 | 1004.3 |
| 20260504190653 | 14 | 62 | 12.9 | 29.0 | 0.00 | 0.00 | 0.00 | 61 | 1004.4 |
| 20260504190153 | 14 | 151 | 6.4 | 25.7 | 0.00 | 0.00 | 0.00 | 61 | 1004.4 |
| 20260504185631 | 15 | 52 | 14.5 | 25.7 | 0.00 | 0.05 | 0.00 | 60 | 1004.4 |
| 20260504185131 | 15 | 62 | 9.7 | 27.4 | 0.00 | 0.05 | 0.00 | 63 | 1004.5 |
| 20260504184548 | 15 | 87 | 16.1 | 27.4 | 0.00 | 0.05 | 0.00 | 62 | 1004.5 |
| 20260504184048 | 13 | 54 | 12.9 | 22.5 | 0.00 | 0.05 | 0.00 | 68 | 1004.5 |
| 20260504183548 | 13 | 23 | 9.7 | 25.7 | 0.00 | 0.05 | 0.00 | 68 | 1004.6 |
| 20260504183048 | 12 | 112 | 14.5 | 29.0 | 0.00 | 0.05 | 0.00 | 68 | 1004.7 |
| 20260504182526 | 12 | 78 | 12.9 | 37.0 | 0.00 | 0.05 | 0.00 | 68 | 1004.8 |
| 20260504182026 | 12 | 37 | 9.7 | 25.7 | 0.00 | 0.05 | 0.00 | 69 | 1004.8 |
| 20260504181525 | 12 | 91 | 14.5 | 25.7 | 0.00 | 0.05 | 0.00 | 68 | 1004.8 |
| 20260504181025 | 12 | 75 | 8.0 | 27.4 | 0.00 | 0.05 | 0.00 | 68 | 1004.9 |
| 20260504180525 | 12 | 67 | 12.9 | 27.4 | 0.00 | 0.05 | 0.00 | 69 | 1005.0 |
| 20260504180201 | 12 | 31 | 9.7 | 24.1 | 0.00 | 0.05 | 0.00 | 68 | 1005.1 |
| 20260504180025 | 12 | 56 | 6.4 | 24.1 | 0.00 | 0.05 | 0.00 | 69 | 1005.0 |
| 20260504175524 | 12 | 51 | 11.3 | 24.1 | 0.00 | 0.10 | 0.00 | 68 | 1005.1 |
| 20260504175024 | 12 | 58 | 8.0 | 24.1 | 0.00 | 0.10 | 0.00 | 71 | 1005.1 |
| 20260504174646 | 12 | 11 | 8.0 | 24.1 | 0.00 | 0.10 | 0.00 | 70 | 1005.1 |
| 20260504174523 | 12 | 54 | 6.4 | 16.1 | 0.00 | 0.10 | 0.00 | 70 | 1005.1 |
| 20260504174023 | 12 | 69 | 8.0 | 20.9 | 0.00 | 0.10 | 0.00 | 70 | 1005.2 |
| 20260504173523 | 11 | 43 | 9.7 | 20.9 | 0.00 | 0.10 | 0.00 | 69 | 1005.3 |
| 20260504173130 | 12 | 92 | 9.7 | 19.3 | 0.00 | 0.10 | 0.00 | 68 | 1005.4 |
| 20260504173022 | 12 | 86 | 9.7 | 19.3 | 0.00 | 0.10 | 0.00 | 68 | 1005.4 |
| 20260504172522 | 12 | 82 | 9.7 | 17.7 | 0.00 | 0.10 | 0.00 | 67 | 1005.3 |
| 20260504172022 | 12 | 66 | 4.8 | 24.1 | 0.00 | 0.10 | 0.00 | 68 | 1005.2 |
| 20260504171615 | 11 | 54 | 9.7 | 24.1 | 0.00 | 0.10 | 0.00 | 68 | 1005.3 |
| 20260504171522 | 12 | 104 | 8.0 | 24.1 | 0.00 | 0.10 | 0.00 | 67 | 1005.2 |
| 20260504171021 | 12 | 115 | 11.3 | 22.5 | 0.00 | 0.10 | 0.00 | 67 | 1005.2 |
| 20260504170521 | 11 | 98 | 6.4 | 19.3 | 0.00 | 0.10 | 0.00 | 68 | 1005.2 |
| 20260504150932 | 12 | 54 | 11.3 | 19.3 | 0.00 | 0.25 | 0.00 | 56 | 1005.1 |
| 20260504150431 | 12 | 83 | 11.3 | 20.9 | 0.00 | 0.25 | 0.00 | 53 | 1005.1 |
| 20260504140928 | 11 | 61 | 1.6 | 17.7 | 0.00 | 0.36 | 0.00 | 58 | 1006.1 |
| 20260504140427 | 11 | 27 | 9.7 | 19.3 | 0.00 | 0.36 | 0.00 | 59 | 1006.1 |
| 20260504130341 | 10 | 57 | 8.0 | 16.1 | 0.00 | 0.46 | 0.00 | 57 | 1006.6 |
| 20260504130116 | 10 | 43 | 9.7 | 16.1 | 0.00 | 0.46 | 0.00 | 58 | 1006.6 |
| 20260504120256 | 6 | 45 | 3.2 | 9.7 | 0.00 | 0.58 | 0.00 | 74 | 1007.0 |
| 20260504110710 | 3 | 23 | 3.2 | 9.7 | 0.00 | 0.74 | 0.00 | 80 | 1006.8 |
| 20260504110149 | 3 | 48 | 4.8 | 9.7 | 0.00 | 0.74 | 0.00 | 80 | 1006.9 |
| 20260504100124 | -1 | 357 | 1.6 | 6.4 | 0.00 | 0.86 | 0.00 | 95 | 1006.7 |
| 20260504081953 | -1 | 41 | 1.6 | 4.8 | 0.00 | 0.99 | 0.00 | 94 | 1006.2 |
| 20260504081550 | -1 | 41 | 0.0 | 3.2 | 0.00 | 0.99 | 0.00 | 94 | 1006.3 |
| 20260504081452 | -1 | 41 | 0.0 | 3.2 | 0.00 | 0.99 | 0.00 | 94 | 1006.2 |
| 20260504080931 | -1 | 41 | 1.6 | 3.2 | 0.00 | 0.99 | 0.00 | 94 | 1006.3 |
| 20260504080431 | -1 | 41 | 0.0 | 3.2 | 0.00 | 0.99 | 0.00 | 94 | 1006.3 |
| 20260504070345 | 0 | 48 | 1.6 | 4.8 | 0.00 | 1.02 | 0.00 | 90 | 1006.1 |
| 20260504060216 | 0 | 90 | 1.6 | 4.8 | 0.00 | 1.04 | 0.00 | 87 | 1005.8 |
| 20260504050528 | 1 | 117 | 1.6 | 8.0 | 0.00 | 1.04 | 0.00 | 86 | 1005.7 |
| 20260504045527 | 0 | 122 | 1.6 | 8.0 | 0.00 | 1.07 | 0.00 | 88 | 1005.8 |
| 20260504045027 | 1 | 124 | 1.6 | 4.8 | 0.00 | 1.07 | 0.00 | 88 | 1005.8 |
| 20260504044646 | 1 | 124 | 1.6 | 8.0 | 0.00 | 1.07 | 0.00 | 87 | 1005.9 |
| 20260504044526 | 1 | 125 | 1.6 | 8.0 | 0.00 | 1.07 | 0.00 | 87 | 1005.8 |
| 20260504044026 | 1 | 124 | 3.2 | 8.0 | 0.00 | 1.07 | 0.00 | 86 | 1005.8 |
| 20260504043526 | 1 | 129 | 0.0 | 4.8 | 0.00 | 1.07 | 0.00 | 88 | 1005.8 |
| 20260504043132 | 1 | 129 | 0.0 | 4.8 | 0.00 | 1.07 | 0.00 | 88 | 1005.9 |
| 20260504043026 | 1 | 129 | 0.0 | 4.8 | 0.00 | 1.07 | 0.00 | 87 | 1005.8 |
| 20260504042525 | 1 | 129 | 1.6 | 4.8 | 0.00 | 1.07 | 0.00 | 86 | 1005.8 |
| 20260504042025 | 1 | 130 | 0.0 | 4.8 | 0.00 | 1.07 | 0.00 | 86 | 1005.8 |
| 20260504041612 | 2 | 130 | 0.0 | 4.8 | 0.00 | 1.07 | 0.00 | 85 | 1005.8 |
| 20260504041525 | 2 | 131 | 0.0 | 4.8 | 0.00 | 1.07 | 0.00 | 84 | 1005.7 |
| 20260504041024 | 2 | 131 | 0.0 | 8.0 | 0.00 | 1.07 | 0.00 | 81 | 1005.7 |
| 20260504040442 | 2 | 131 | 1.6 | 8.0 | 0.00 | 1.07 | 0.00 | 79 | 1005.6 |
| 20260504040051 | 2 | 127 | 1.6 | 8.0 | 0.00 | 1.07 | 0.00 | 75 | 1005.6 |
| 20260504035942 | 2 | 127 | 3.2 | 8.0 | 0.00 | 1.07 | 1.07 | 75 | 1005.5 |
| 20260504035420 | 2 | 110 | 1.6 | 6.4 | 0.00 | 1.07 | 1.07 | 75 | 1005.5 |
| 20260504034920 | 2 | 104 | 1.6 | 6.4 | 0.00 | 1.07 | 1.07 | 73 | 1005.4 |
| 20260504034536 | 3 | 97 | 0.0 | 6.4 | 0.00 | 1.07 | 1.07 | 74 | 1005.4 |
| 20260504034419 | 3 | 97 | 0.0 | 6.4 | 0.00 | 1.07 | 1.07 | 73 | 1005.3 |
| 20260504033919 | 3 | 99 | 1.6 | 11.3 | 0.00 | 1.07 | 1.07 | 72 | 1005.3 |
| 20260504033419 | 3 | 79 | 3.2 | 11.3 | 0.00 | 1.07 | 1.07 | 72 | 1005.2 |
| 20260504033036 | 3 | 114 | 3.2 | 9.7 | 0.00 | 1.07 | 1.07 | 71 | 1005.2 |
| 20260504032919 | 3 | 129 | 3.2 | 9.7 | 0.00 | 1.07 | 1.07 | 71 | 1005.1 |
| 20260504032418 | 3 | 129 | 1.6 | 4.8 | 0.00 | 1.07 | 1.07 | 71 | 1005.2 |
| 20260504031918 | 3 | 130 | 1.6 | 8.0 | 0.00 | 1.07 | 1.07 | 72 | 1005.2 |
| 20260504031507 | 3 | 133 | 0.0 | 8.0 | 0.00 | 1.07 | 1.07 | 70 | 1005.2 |
| 20260504031417 | 3 | 133 | 1.6 | 8.0 | 0.00 | 1.07 | 1.07 | 70 | 1005.2 |
| 20260504030856 | 3 | 112 | 1.6 | 6.4 | 0.00 | 1.07 | 1.07 | 69 | 1005.1 |
| 20260504030356 | 3 | 146 | 3.2 | 9.7 | 0.00 | 1.07 | 1.07 | 68 | 1005.0 |
| 20260504025855 | 3 | 163 | 3.2 | 6.4 | 0.00 | 1.09 | 1.07 | 68 | 1005.0 |
| 20260504025355 | 4 | 145 | 1.6 | 11.3 | 0.00 | 1.09 | 1.07 | 68 | 1004.9 |
| 20260504024855 | 4 | 147 | 3.2 | 11.3 | 0.00 | 1.09 | 1.07 | 66 | 1004.9 |
| 20260504024333 | 4 | 110 | 3.2 | 12.9 | 0.00 | 1.09 | 1.07 | 65 | 1004.9 |
| 20260504023833 | 4 | 134 | 4.8 | 12.9 | 0.00 | 1.09 | 1.07 | 64 | 1004.9 |
| 20260504023332 | 4 | 149 | 4.8 | 14.5 | 0.00 | 1.09 | 1.07 | 65 | 1004.9 |
| 20260504022811 | 4 | 137 | 4.8 | 14.5 | 0.00 | 1.09 | 1.07 | 66 | 1004.9 |
| 20260504022310 | 4 | 127 | 4.8 | 12.9 | 0.00 | 1.09 | 1.07 | 67 | 1004.9 |
| 20260504021810 | 4 | 141 | 3.2 | 8.0 | 0.00 | 1.09 | 1.07 | 65 | 1004.9 |
| 20260504021249 | 4 | 167 | 3.2 | 12.9 | 0.00 | 1.09 | 1.07 | 65 | 1004.8 |
| 20260504020749 | 5 | 116 | 3.2 | 12.9 | 0.00 | 1.09 | 1.07 | 64 | 1004.8 |
| 20260504020248 | 5 | 117 | 4.8 | 11.3 | 0.00 | 1.09 | 1.07 | 63 | 1004.8 |
| 20260504015748 | 5 | 151 | 4.8 | 11.3 | 0.00 | 1.12 | 1.07 | 62 | 1004.7 |
| 20260504015247 | 5 | 139 | 3.2 | 16.1 | 0.00 | 1.12 | 1.07 | 62 | 1004.7 |
| 20260504014726 | 5 | 145 | 3.2 | 16.1 | 0.00 | 1.12 | 1.07 | 63 | 1004.6 |
| 20260504014226 | 5 | 119 | 4.8 | 14.5 | 0.00 | 1.12 | 1.07 | 62 | 1004.6 |
| 20260504013725 | 5 | 144 | 3.2 | 9.7 | 0.00 | 1.12 | 1.07 | 63 | 1004.6 |
| 20260504013225 | 5 | 168 | 3.2 | 11.3 | 0.00 | 1.12 | 1.07 | 62 | 1004.6 |
| 20260504012725 | 5 | 149 | 3.2 | 12.9 | 0.00 | 1.12 | 1.07 | 59 | 1004.6 |